CHINASAT 9B

Last updated on Sat Jul 05 2025 00:02:48 GMT+0000 (Coordinated Universal Time)

1 49125U 21080A 25185.62191516 -.00000299 00000+0 00000+0 0 9993 2 49125 0.0169 57.5199 0002450 64.7715 125.8565 1.00274689 14167
UTC large
Height (km)
Speed (km/s)
/
Latitude / Longitude
Inclination (degrees)
Orbital Period (minutes)
Azimuth
Elevation
Range (km)
Doppler Factor

Next 0 passes for location: London (51.5072 / 0.1276)

Sorry there are no passes over London.